ハウエル彗星

88P/Howell (2020)

English version
Home page
Updated on December 18, 2022

---------------------------------------------------------------------

・ プロフィール

・ 写真集

・ 軌道要素

Epoch 2020 Sept. 28.0 TT = JDT 2459120.5
T 2020 Sept. 26.60480 TT                                Rudenko
q   1.3530698            (2000.0)            P               Q
n   0.18005022     Peri.  235.91271     +0.38221605     +0.92186285
a   3.1060393      Node    56.68390     -0.82064857     +0.37040028
e   0.5643745      Incl.    4.38367     -0.42479031     +0.11389695
P   5.47
From 4419 observations 1981 Sept. 3-2021 Feb. 19, mean residual 0".8.
     Nongravitational parameters A1 = -0.01, A2 = -0.0130.

・ 星図

・ 光度変化

        m1 = 12.0 + 5 logΔ + 10.0 log r(t - 15)  [    ,-287]  (              〜2019年12月14日)
        m1 =  4.7 + 5 logΔ + 25.0 log r(t - 15)  [-287,  15]  (2019年12月14日〜2020年10月11日)
        m1 =  5.2 + 5 logΔ + 20.0 log r          [  15,    ]  (2020年10月11日〜              )

---------------------------------------------------------------------

軌道要素はM.P.E.C. 2021-F20に掲載されたものです。
星図はステラナビゲータ Ver.10 (アストロアーツ) で作成したものです。
光度グラフはComet for Windowsで作成したものです。

---------------------------------------------------------------------

Copyright(C) Seiichi Yoshida (comet@aerith.net). All rights reserved.